This demonstration page uses our WeatherBlox Daily Observations layout. Learn more.

Left ArrowRight Arrow

39.08367, -84.50855

Hourly Observations for December 28, 2016

Temp ( °F °C ) Dew Point ( °F °C ) Humidity (%) Winds ( mph kmh ) Pressure ( in mb ) Visibility ( mi km ) Precip ( " mm )
12:53 am 00:53 Clear 33 0.6 25 -3.9 72 72 WSW 5 7 30.24 1024 10 16 0.00 0.00
1:53 am 01:53 Clear 31 -0.6 25 -3.9 79 79 Calm 30.24 1024 10 16 0.00 0.00
2:53 am 02:53 Clear 27 -2.8 24 -4.4 89 89 Calm 30.26 1025 10 16 0.00 0.00
3:53 am 03:53 Clear 28 -2.2 25 -3.9 88 88 Calm 30.27 1025 10 16 0.00 0.00
4:53 am 04:53 Clear 25 -3.9 24 -4.4 96 96 Calm 30.27 1025 10 16 0.00 0.00
5:53 am 05:53 Clear 25 -3.9 23 -5 92 92 Calm 30.28 1025 10 16 0.00 0.00
6:53 am 06:53 Clear 24 -4.4 23 -5 96 96 Calm 30.28 1026 10 16 0.00 0.00
7:53 am 07:53 Clear 24 -4.4 24 -4.4 100 100 Calm 30.26 1025 7 11 0.00 0.00
8:14 am 08:14 Sunny 25 -4 23 -5 93 93 Calm 30.27 1025 8 13 0.00 0.00
8:53 am 08:53 Sunny 26 -3.3 25 -3.9 96 96 SW 3 6 30.26 1025 9 14 0.00 0.00
9:53 am 09:53 Sunny 30 -1.1 29 -1.7 96 96 SSW 3 6 30.25 1024 10 16 0.00 0.00
10:53 am 10:53 Sunny 36 2.2 30 -1.1 79 79 S 7 11 30.24 1024 10 16 0.00 0.00
11:53 am 11:53 Sunny 40 4.4 29 -1.7 65 65 S 3 6 30.19 1023 10 16 0.00 0.00
12:53 pm 12:53 Sunny 43 6.1 29 -1.7 58 58 VRB 6 9 30.15 1021 10 16 0.00 0.00
1:53 pm 13:53 Sunny 46 7.8 29 -1.7 51 51 SSE 7 11 30.11 1020 10 16 0.00 0.00
2:53 pm 14:53 Sunny 48 8.9 28 -2.2 46 46 SE 6 9 30.06 1018 10 16 0.00 0.00
3:53 pm 15:53 Sunny 48 8.9 26 -3.3 42 42 SSE 10 17 30.03 1017 10 16 0.00 0.00
4:53 pm 16:53 Sunny 46 7.8 28 -2.2 50 50 SSE 7 11 29.99 1016 10 16 0.00 0.00
5:53 pm 17:53 Clear 44 6.7 27 -2.8 51 51 ESE 3 6 29.97 1015 10 16 0.00 0.00
6:53 pm 18:53 Cloudy 45 7.2 29 -1.7 54 54 VRB 3 6 29.93 1014 10 16 0.00 0.00
7:53 pm 19:53 Cloudy 45 7.2 29 -1.7 54 54 VRB 5 7 29.90 1013 10 16 0.00 0.03
8:53 pm 20:53 Cloudy 45 7.2 30 -1.1 56 56 SSW 9 15 29.88 1012 10 16 0.00 0.00
9:53 pm 21:53 Cloudy 42 5.6 36 2.2 79 79 WSW 5 7 29.87 1012 10 16 0.01 0.25
10:41 pm 22:41 Cloudy 42 5.6 37 2.8 82 82 SSW 3 6 29.88 1012 10 16 0.00 0.00
10:53 pm 22:53 Cloudy 41 5 39 3.9 93 93 Calm 29.86 1011 10 16 0.00 0.00
11:49 pm 23:49 Cloudy 41 5 39 4 93 93 Calm 29.85 1011 10 16 0.00 0.00
11:53 pm 23:53 Cloudy 41 5 40 4.4 96 96 Calm 29.85 1011 10 16 0.00 0.00

Powered by AerisWeather